Location: Auckland
(36.8670°S, 174.7670°E)
Time: 00:36:11
(UTC+12:00)

Courier 1B Rocket - Pass Details

Date: 24 July 2019
Orbit: 920 x 1202 km, 28.3° (Epoch: 18 August)

Event Time Altitude Azimuth Distance (km) Brightness Sun altitude
Rises 02:57:17 0° 312° (NW) 4,089 - -53.3°
Reaches altitude 10° 03:00:33 10° 323° (NW) 3,133 - -52.7°
Maximum altitude 03:07:03 29° 19° (NNE) 2,035 - -51.5°
Exits shadow 03:12:13 14° 69° (ENE) 2,763 7.7 -50.5°
Drops below altitude 10° 03:13:26 10° 75° (ENE) 3,078 8.0 -50.2°
Sets 03:16:36 0° 86° (E) 4,006 8.8 -49.6°
